LiveATC.Net - Listen to live air traffic control over the Internet!


ICAO: PALH  IATA: LHD   Airport: Lake Hood Seaplane Base
City: Anchorage   State/Province: Alaska
Country: United States   Continent: North America
PALH METAR Weather: PALH 181053Z 00000KT 10SM CLR 03/M02 A3031 RMK AO2 SLP266 T00281022
PALH Flight Activity (FlightAware)
PALH Webcam:  (Airport Webcams) 
PALH Airport Info   (iFlightPlanner)
PALH VFR Sectional Chart   (iFlightPlanner) 
PALH IFR Low Chart   (iFlightPlanner) 

PALH Tower
Feed Status: UP   Listeners: 0
Listen in your browser - HTML5 player (in browser, HTML5)
Click here to listen with your own player (launches your MP3 player)
Archive Access: PALH Tower
FacilityFrequency
Lake Hood Tower126.800
Feed sponsored by: SkyTrek Alaska Flight Training

NOTICE

Unauthorized use prohibited. See LiveATC.net Terms of Service


Airport/ARTCC Code
Frequency Search
(e.g., 124.400, 128.75)
Site-wide search
 


Browse Feeds
Top 50 Feeds
HF Oceanic Feeds
Coverage Map
Bad Weather Areas

LiveATC FAQ
Offer LiveATC feed
Contact LiveATC.net
Press Inquiries

LiveATC on iPhone
LiveATC on Android

Windows Phone
Windows 8/10

LiveATC Mobile
(Mobile browser)

ATC Audio Archives
Interesting Recordings

LiveATC Forums


Home Page
About LiveATC.net
Make a Donation
Terms of Use
Privacy Policy

Canadian Air Freqs

AIRMETs/SIGMETs

FAA Airport Status
Nat'l Airspace Status
Arrival Demand Charts


Server Software By:
Icecast.org
Liquidsoap